Weather History for KPMD - December, 2013

Change the Weather History Date:

Friday, December 6, 2013

  Actual Average Record
Temperature  
Mean Temperature 38 °F 45 °F  
Max Temperature 51 °F 60 °F 81 °F (1977)
Min Temperature 25 °F 31 °F 18 °F (1953)
Degree Days  
Heating Degree Days 27 20  
Month to date heating degree days 117 116  
Since 1 July heating degree days 630 643  
Cooling Degree Days 0 0  
Month to date cooling degree days 0 0  
Year to date cooling degree days 2126 1815  
Moisture  
Dew Point 24 °F    
Average Humidity 59    
Maximum Humidity 81    
Minimum Humidity 37    
Precipitation  
Precipitation 0.00 in 0.02 in 1.93 in (1997)
Month to date precipitation T 0.08  
Year to date precipitation 2.93 7.23  
Since 1 July precipitation 2.07 1.91  
Snow  
Snow 0.00 in - 0.00 in (1973)
Month to date snowfall 0.0  
Since 1 July snowfall 0.0  
Snow Depth 0.00 in    
Sea Level Pressure  
Sea Level Pressure 30.10 in    
Wind  
Wind Speed 8 mph (WSW)    
Max Wind Speed 23 mph    
Max Gust Speed 26 mph    
Visibility 10 miles    
Events      
T = Trace of Precipitation, MM = Missing Value Source: NWS Daily Summary

Daily Weather History Graph

Daily Weather History Graph

Search for Another Location

Airport or City:

Trip Planner

Search our weather history database for the weather conditions in past years. The results will help you decide how hot, cold, wet, or windy it might be!

Date:

Astronomy

Dec. 06, 2013 Rise Set
Actual Time 6:45 AM PST 4:41 PM PST
Civil Twilight 6:17 AM PST 5:09 PM PST
Nautical Twilight 5:46 AM PST 5:40 PM PST
Astronomical Twilight 5:15 AM PST 6:11 PM PST
Moon 10:00 AM PST (12/6) 9:11 PM PST (12/6)
Length of Visible Light 10h 51m
Length of Day
9h 55m
Waxing Crescent, 20% of the Moon is Illuminated
Dec 6
Waxing Crescent
Dec 9
First Quarter
Dec 17
Full
Dec 25
Last Quarter
Jan 1
New

Hourly Weather History & Observations

Time (PST) Temp. Windchill Dew Point Humidity Pressure Visibility Wind Dir Wind Speed Gust Speed Precip Events Conditions
12:53 AM 28.9 °F 23.9 °F 19.9 °F 69% 30.10 in 10.0 mi South 4.6 mph - N/A   Clear
1:53 AM 28.0 °F 22.8 °F 19.9 °F 72% 30.11 in 10.0 mi South 4.6 mph - N/A   Clear
2:53 AM 28.9 °F - 17.1 °F 61% 30.11 in 10.0 mi Calm Calm - N/A   Clear
3:53 AM 28.0 °F - 15.1 °F 58% 30.10 in 10.0 mi Calm Calm - N/A   Clear
4:53 AM 27.0 °F - 17.1 °F 66% 30.11 in 10.0 mi Calm Calm - N/A   Clear
5:53 AM 25.0 °F - 19.0 °F 78% 30.13 in 10.0 mi Calm Calm - N/A   Clear
6:53 AM 25.0 °F 20.7 °F 19.0 °F 78% 30.14 in 10.0 mi SSE 3.5 mph - N/A   Clear
7:53 AM 30.0 °F - 21.0 °F 69% 30.15 in 10.0 mi Calm Calm - N/A   Clear
8:53 AM 34.0 °F 29.8 °F 18.0 °F 52% 30.16 in 10.0 mi NE 4.6 mph - N/A   Clear
9:53 AM 37.9 °F 35.5 °F 18.0 °F 45% 30.16 in 10.0 mi NNE 3.5 mph - N/A   Clear
10:53 AM 42.1 °F 40.2 °F 21.0 °F 43% 30.16 in 10.0 mi Variable 3.5 mph - N/A   Clear
11:53 AM 46.0 °F 42.5 °F 21.9 °F 39% 30.12 in 10.0 mi NNE 6.9 mph - N/A   Clear
12:53 PM 50.0 °F - 27.0 °F 41% 30.08 in 10.0 mi WSW 16.1 mph 19.6 mph N/A   Partly Cloudy
1:53 PM 50.0 °F - 27.0 °F 41% 30.06 in 10.0 mi WSW 16.1 mph - N/A   Clear
2:53 PM 48.9 °F - 27.0 °F 43% 30.05 in 10.0 mi WSW 16.1 mph - N/A   Clear
3:53 PM 48.0 °F - 27.0 °F 44% 30.05 in 10.0 mi SW 18.4 mph - N/A   Clear
4:53 PM 45.0 °F 37.4 °F 28.0 °F 52% 30.06 in 10.0 mi SW 18.4 mph - N/A   Clear
5:53 PM 44.1 °F 37.7 °F 32.0 °F 63% 30.07 in 10.0 mi WSW 12.7 mph - N/A   Clear
6:53 PM 43.0 °F 37.7 °F 32.0 °F 65% 30.09 in 10.0 mi West 9.2 mph - N/A   Clear
7:53 PM 41.0 °F - 32.0 °F 70% 30.08 in 10.0 mi Calm Calm - N/A   Clear
8:53 PM 39.9 °F 32.9 °F 32.0 °F 73% 30.07 in 10.0 mi West 11.5 mph - N/A   Clear
9:53 PM 39.9 °F 31.8 °F 32.0 °F 73% 30.07 in 10.0 mi West 15.0 mph - N/A   Clear
10:53 PM 39.9 °F 34.5 °F 30.9 °F 70% 30.06 in 10.0 mi West 8.1 mph - N/A   Clear
11:53 PM 39.9 °F 35.1 °F 30.9 °F 70% 30.05 in 10.0 mi WSW 6.9 mph - N/A   Clear